CST,Max TemperatureF,Mean TemperatureF,Min TemperatureF,Max Dew PointF,MeanDew PointF,Min DewpointF,Max Humidity, Mean Humidity, Min Humidity, Max Sea Level PressureIn, Mean Sea Level PressureIn, Min Sea Level PressureIn, Max VisibilityMiles, Mean VisibilityMiles, Min VisibilityMiles, Max Wind SpeedMPH, Mean Wind SpeedMPH, Max Gust SpeedMPH,PrecipitationIn, CloudCover, Events, WindDirDegrees
2013-2-1,48,30,12,21,15,8,88,60,30,30.40,30.27,30.11,10,10,10,25,6,31,0.00,0,,194
2013-2-2,59,41,23,31,23,18,85,56,24,30.36,30.30,30.21,10,10,10,15,5,,0.00,0,,290
2013-2-3,64,42,19,28,21,16,89,46,16,30.31,30.11,29.78,10,10,10,28,9,37,0.00,0,,198
2013-2-4,61,44,28,34,25,20,72,46,21,29.98,29.90,29.75,10,10,10,14,8,22,0.00,0,,26
2013-2-5,66,45,24,27,22,19,81,48,17,30.05,29.99,29.92,10,10,9,14,5,,0.00,0,,172
2013-2-6,64,52,39,54,44,27,100,79,50,29.99,29.87,29.72,10,8,0,26,10,38,0.00,4,Fog,182
2013-2-7,57,44,30,54,38,21,94,69,30,30.24,29.94,29.70,10,10,8,30,19,36,0.00,4,,349
2013-2-8,55,37,19,28,19,13,89,52,21,30.31,30.20,30.04,10,10,10,18,8,24,0.00,0,,186
2013-2-9,53,44,36,48,40,26,100,83,55,30.04,29.72,29.55,10,7,2,34,20,46,0.01,5,Rain,173
2013-2-10,54,40,25,28,21,17,72,46,23,30.10,29.80,29.58,10,10,10,24,14,31,0.00,0,,282
2013-2-11,48,32,17,22,18,14,92,59,30,30.26,30.17,30.09,10,10,10,9,3,,0.00,2,,61
2013-2-12,36,28,19,32,29,19,100,90,54,30.13,30.07,30.03,10,4,0,15,7,,0.14,7,Fog-Rain-Snow,22
2013-2-13,39,27,15,29,21,11,92,80,62,30.13,30.07,30.00,10,10,9,13,9,,0.00,0,,251
2013-2-14,51,36,21,36,28,19,92,75,54,30.31,30.15,30.04,10,9,6,16,7,,0.00,3,,333
2013-2-15,42,34,25,32,25,17,100,75,41,30.47,30.38,30.30,10,8,2,15,7,,0.00,5,Snow,38
2013-2-16,61,40,19,31,26,19,100,79,26,30.42,30.27,30.03,10,6,0,24,7,34,0.00,2,Fog,247
2013-2-17,68,48,28,30,26,20,85,48,19,30.01,29.80,29.53,10,10,10,28,9,38,0.00,0,,209
2013-2-18,53,39,25,28,22,17,78,47,26,30.17,29.86,29.50,10,10,10,32,19,40,0.00,1,,317
2013-2-19,54,36,19,25,20,16,89,57,25,30.31,30.20,30.09,10,10,10,21,6,29,0.00,0,,167
2013-2-20,42,37,32,36,32,22,100,91,45,30.07,29.96,29.84,10,7,0,28,15,36,0.06,8,Fog-Rain-Snow,131
2013-2-21,32,20,8,32,24,5,100,91,80,30.07,29.75,29.59,10,5,0,21,10,25,0.56,7,Fog-Rain-Snow,49
2013-2-22,26,14,1,17,9,-1,92,82,66,30.22,30.15,30.07,10,10,6,12,8,,0.00,0,,267
2013-2-23,37,22,8,31,23,6,95,84,75,30.14,29.98,29.81,10,8,5,18,7,28,0.00,3,,189
2013-2-24,51,40,30,38,29,26,100,86,54,29.91,29.81,29.68,10,6,0,25,15,33,0.16,5,Fog-Rain-Snow-Thunderstorm,353
2013-2-25,32,30,28,31,29,28,100,95,92,29.88,29.79,29.71,3,1,0,32,22,46,0.06,8,Fog-Snow,3
2013-2-26,34,26,19,27,22,16,93,83,70,30.01,29.90,29.83,10,9,4,22,13,29,0.00,2,Rain,317
2013-2-27,37,28,19,28,23,16,92,78,65,30.29,30.19,29.98,10,10,10,22,10,31,0.00,1,,324
2013-2-28,42,30,19,29,23,18,93,76,53,30.35,30.29,30.23,10,10,9,13,8,,0.00,0,,287